Location: Kalberh�ni
(46.4610°N, 7.2453°E)
Time: 09:24:13
(UTC+00:00)

Cosmos 1331 Rocket - Visible Passes

Search period start: 28 October 2021 00:00
Search period end: 07 November 2021 00:00
Orbit: 750 x 777 km, 74.0° (Epoch: 27 October)

Date Brightness Start Highest point End Pass type
(mag) Time Alt. Az. Time Alt. Az. Time Alt. Az.
28 Oct 6.9 03:51:12 10° NNE 03:52:34 11° NE 03:53:56 10° ENE visible
28 Oct 4.8 05:30:35 10° NNW 05:35:46 56° ENE 05:40:57 10° SE visible
29 Oct 5.6 04:52:24 10° N 04:57:12 35° ENE 05:02:00 10° SE visible
30 Oct 6.3 04:14:23 10° N 04:18:31 23° NE 04:22:38 10° ESE visible
31 Oct 6.7 03:36:43 10° NNE 03:39:42 15° NE 03:42:41 10° E visible
31 Oct 4.1 05:17:15 10° NNW 05:22:32 82° ENE 05:27:49 10° SSE visible
01 Nov 4.9 04:38:56 10° NNW 04:44:04 50° ENE 04:49:10 10° SE visible
02 Nov 5.7 04:00:47 10° N 04:05:27 31° ENE 04:10:08 10° ESE visible
02 Nov 6.3 18:39:48 10° S 18:39:50 10° S 18:39:50 10° S visible
03 Nov 6.4 03:22:50 10° N 03:26:44 20° NE 03:30:38 10° E visible
03 Nov 4.0 05:03:59 10° NNW 05:09:14 69° WSW 05:14:28 10° S visible
03 Nov 5.7 18:02:11 10° SSE 18:03:37 17° SE 18:03:37 17° SE visible
03 Nov 6.5 19:43:22 10° SW 19:43:53 13° SW 19:43:53 13° SW visible
04 Nov 6.8 02:45:17 10° NNE 02:47:53 14° NE 02:50:28 10° ENE visible
04 Nov 4.2 04:25:34 10° NNW 04:30:50 73° ENE 04:36:07 10° SSE visible
04 Nov 5.6 17:25:17 10° SE 17:27:20 15° ESE 17:27:20 15° ESE visible
04 Nov 5.1 19:04:36 10° SSW 19:07:36 35° SW 19:07:36 35° SW visible
05 Nov 5.1 03:47:24 11° N 03:52:20 44° ENE 03:57:22 10° SE visible
05 Nov 4.9 05:29:40 10° NW 05:34:04 28° W 05:38:28 10° SSW visible
05 Nov 3.8 18:26:13 10° S 18:31:13 70° ESE 18:31:13 70° ESE visible
05 Nov 6.6 20:10:08 10° W 20:11:29 15° W 20:11:29 15° W visible
06 Nov 5.8 03:10:43 17° N 03:13:42 28° NE 03:18:13 10° ESE visible
06 Nov 4.3 04:50:58 11° NNW 04:55:52 46° WSW 05:00:54 10° S visible
06 Nov 4.3 17:48:15 10° S 17:53:03 41° ESE 17:54:42 32° ENE visible
06 Nov 5.7 19:30:36 10° WSW 19:34:57 30° WNW 19:34:57 30° WNW visible
